Miscellaneous Local Product
Issued by NWS North Platte, NE

Home | Current Version | Previous Version | Text Only | Print | Product List | Glossary On
Versions: 1 2 3 4 5 6 7 8 9 10 11 12 13 14 15 16 17 18 19 20 21 22 23 24 25 26 27 28 29 30 31 32 33 34 35 36 37 38 39 40 41 42 43 44 45 46 47 48 49 50
000
AXUS43 KLBF 210110
MISLBF


WESTERN AND NORTH CENTRAL NEBRASKA HOURLY WEATHER ROUNDUP
NATIONAL WEATHER SERVICE NORTH PLATTE NE
700 PM CST TUE FEB 20 2018

NOTE: "FAIR" INDICATES FEW OR NO CLOUDS BELOW 12,000 FEET WITH NO
SIGNIFICANT WEATHER AND/OR OBSTRUCTIONS TO VISIBILITY.

NOTE: STATIONS NOT REPORTING VARIABLES SUCH AS SKY/WEATHER OR
PRESSURE ARE PROVIDED BY RAWS AND APRS NETWORKS AND ARE NOT UNDER
NATIONAL WEATHER SERVICE QUALITY CONTROL.

...OBSERVATIONS IN AND NEAR THE EASTERN PANHANDLE OF NEBRASKA...

CITY           SKY/WX    TMP DP  RH WIND       PRES   REMARKS
PINE RIDGE     FAIR      -4 -10  75 CALM      30.18R
GORDON         FAIR       0  -9  66 CALM      30.16S
CHADRON        FAIR       1 -10  60 W12       30.20R WCI -16
ALLIANCE       FAIR      -6  -9  86 SE8       30.13R WCI -21
SIDNEY         FAIR      -3 -10  72 NW3       30.14R
$$

...OBSERVATIONS IN NORTHERN NEBRASKA AND FAR SOUTHERN SOUTH DAKOTA...

CITY           SKY/WX    TMP DP  RH WIND       PRES   REMARKS
WINNER         FAIR       4  -4  69 W5        30.31R WCI  -5
VALENTINE      FAIR      -3 -10  72 W5        30.27R WCI -13
AINSWORTH      FAIR       6  -1  73 CALM      30.29R
O`NEILL        FAIR       4  -2  77 NW10      30.32R WCI -11
THEDFORD       FAIR       1  -4  77 CALM      30.27R
BROKEN BOW     FAIR       4  -3  73 N3        30.28R
ORD            FAIR       8   0  69 N9        30.32R WCI  -5
ALBION         FAIR      10   3  74 NW13      30.31S WCI  -5
$$

...OBSERVATIONS IN SOUTHWEST NEBRASKA AND FAR NORTHEAST COLORADO...

CITY           SKY/WX    TMP DP  RH WIND       PRES   REMARKS
WRAY           FAIR      10   1  67 NE7       30.21R WCI   0
HOLYOKE        FAIR      10   0  61 NE3       30.20R
IMPERIAL       FAIR       7  -1  70 N3        30.24R
OGALLALA       FAIR       7  -3  63 NE3       30.23R
NORTH PLATTE   FAIR       3  -5  69 NE7       30.28R WCI  -9
MCCOOK         FAIR      13   4  67 N9        30.28R WCI   1
LEXINGTON      FAIR      13   3  65 N12       30.29R WCI  -1
GOTHENBURG       N/A     10   0  63 NW5         N/A  WCI   2
CALLAWAY         N/A      4  -2  74 N6          N/A  WCI  -7
$$

...OBSERVATIONS IN CENTRAL LINCOLN COUNTY AREA...

CITY           SKY/WX    TMP DP  RH WIND       PRES   REMARKS
N.P. AIRPORT   FAIR       3  -5  69 NE7       30.28R WCI  -9
$$

...OBSERVATIONS ACROSS THE ROCKIES AND WESTERN HIGH PLAINS...

CITY           SKY/WX    TMP DP  RH WIND       PRES   REMARKS
RAPID CITY     FAIR      -6 -11  79 CALM      30.18R
SCOTTSBLUFF    FAIR       6  -3  66 CALM      30.14R
CHEYENNE       FAIR       8   3  80 SW8       29.98R WCI  -4
DENVER         MOCLDY    11   4  73 CALM      30.05R
BERTHOUD PASS  MOCLDY    -8 -17  65 W15       29.73R WCI -29
COPPER MTN     FAIR       1  -8  66 SW9       29.77R WCI -14
MONARCH PASS   LGT SNOW   1  -4  78 SW17      29.89R VSB 1   WCI -19
ASPEN          CLOUDY    14   8  77 CALM      29.95R
LARAMIE        FAIR       1  -8  66 W8        29.91R WCI -13
CASPER         FAIR       6  -2  69 S5        29.99R WCI  -3
$$

...OBSERVATIONS ACROSS THE NORTHERN PLAINS...

CITY           SKY/WX    TMP DP  RH WIND       PRES   REMARKS
BISMARCK       FAIR       5  -4  66 W8        30.22R WCI  -8
FARGO          FAIR       4  -2  76 W8        30.24R WCI  -9
PIERRE         FAIR       3  -4  72 SW7       30.31R WCI  -9
SIOUX FALLS    FAIR       7   1  76 NW8       30.31R WCI  -6
$$

...OBSERVATIONS ACROSS THE CENTRAL AND SOUTHERN PLAINS...

CITY           SKY/WX    TMP DP  RH WIND       PRES   REMARKS
OMAHA          MOCLDY    16   9  74 NW15      30.32R WCI   1
GRAND ISLAND   FAIR      13   4  67 N13       30.32R WCI  -2
KANSAS CITY    CLOUDY    22  17  81 N12       30.26R WCI  10
WICHITA        MOCLDY    24  19  81 N15       30.23R WCI  11
DODGE CITY     FAIR      22   1  40 N14       30.20R WCI   9
OKLAHOMA CITY  CLOUDY    27  24  89 N24G30    30.13R WCI  12
DALLAS         LGT RAIN  44  41  89 N20       29.99R
AMARILLO       FAIR      31   9  39 NE14      30.07R WCI  21
$$




USA.gov is the U.S. government's official web portal to all federal, state and local government web resources and services.